Terminal Aerodrome Forecast
Issued by NWS

Home | Current Version | Previous Version | Text Only | Print | Product List | Glossary On
Versions: 1 2 3 4 5 6 7 8 9 10 11 12 13 14 15 16 17 18 19 20 21 22 23 24 25 26 27 28 29 30 31 32 33 34 35 36 37 38 39 40 41 42 43 44 45 46 47 48 49 50
000
FTUS41 KOKX 160538
TAFSWF
TAF
KSWF 160538Z 1606/1712 24006KT P6SM VCSH BKN060
      TEMPO 1606/1607 -SHRA
     FM161800 23010KT 5SM -SHRA BR BKN020
     FM170000 30005KT P6SM SCT020 BKN030
     FM170200 VRB03KT P6SM SCT035 BKN100
     AMD NOT SKED=

USA.gov is the U.S. government's official web portal to all federal, state and local government web resources and services.